#timestamp,LO_Frequency,Hit,StdDev 
1704826815.2,286046996.6,N
1704826835.9,286046997.5,N
1704826855.7,286046997.4,N
1704826875.6,286046997.8,N
1704826895.4,286046996.8,N
1704826915.2,286046996.6,N
1704826935.1,286046997.2,N
1704826936.0,286046997.2,N
1704826955.8,286046996.8,N
1704826975.7,286046994.9,N
1704826995.5,286046997.4,N
1704827015.3,286046995.8,N
1704827035.2,286046995.7,N
1704827055.0,286046997.2,N
1704827055.9,286046997.2,N
1704827075.7,286046997.5,N
1704827095.6,286046995.6,N
1704827115.4,286046995.3,N
1704827135.3,286046997.9,N
1704827155.1,286046995.5,N
1704827156.0,286046995.5,N
1704827175.8,286046995.0,N
1704827195.7,286046996.7,N
1704827215.5,286046997.4,N
1704827235.4,286046995.6,N
1704827255.2,286046997.3,N
1704827275.0,286046996.7,N
1704827275.9,286046996.7,N
1704827295.8,286046996.8,N
1704827315.6,286046996.7,Y
1704827335.5,286047000.5,P
1704827355.3,286047000.3,N
1704827375.1,286046999.9,N
1704827395.9,286047001.0,N
1704827415.7,286047000.1,N
1704827435.6,286046998.5,N
1704827455.4,286046999.1,N
1704827475.2,286046998.5,N
1704827495.1,286047001.1,N
1704827496.0,286047001.1,N
1704827515.8,286047000.7,N
1704827535.6,286047001.1,N
1704827555.5,286047001.2,N
1704827575.3,286047000.3,N
1704827595.2,286047000.2,N
1704827615.0,286047000.5,N
1704827615.9,286047000.5,N
1704827635.7,286046998.1,N
1704827655.6,286047000.6,N
1704827675.4,286046999.7,N
1704827695.3,286047003.9,Y
1704827715.1,286047001.8,P
1704827735.8,286047002.4,N
1704827755.7,286047002.3,N
1704827775.5,286047000.3,N
1704827795.4,286047001.0,N
1704827815.2,286047000.8,N
1704827835.0,286047000.9,N
1704827835.9,286047000.9,N
1704827855.8,286047000.6,N
1704827875.6,286046999.9,N
1704827895.4,286046999.9,N
1704827915.3,286047000.3,N
1704827935.1,286046999.8,N
1704827955.9,286047001.9,N
1704827975.7,286047002.2,N
1704827995.5,286047002.0,N
1704828015.4,286047002.0,N
1704828035.2,286047001.8,N
1704828055.0,286047001.6,N
1704828055.9,286047001.6,N
1704828075.8,286047002.8,Y
1704828095.6,286046999.5,P
1704828115.5,286046999.1,N
1704828135.3,286046999.2,N
1704828155.1,286046996.8,Y
1704828175.9,286046997.3,P
1704828195.7,286046999.1,N
1704828215.5,286046996.6,P
1704828235.4,286046997.0,N
1704828255.2,286046998.9,N
1704828275.1,286046997.3,N
1704828276.0,286046997.3,N
1704828295.8,286046997.3,N
1704828315.6,286046997.4,N
1704828335.5,286046995.0,Y
1704828355.3,286046998.6,P
1704828375.1,286047001.2,N
1704828395.9,286046998.2,N
1704828415.7,286047000.5,N
1704828435.6,286046998.4,N
1704828455.4,286046998.1,N
1704828475.2,286046998.2,N
1704828495.1,286047000.6,N
1704828496.0,286047000.6,N
1704828515.8,286047000.9,N
1704828535.6,286047000.1,N
1704828555.5,286046999.7,N
1704828575.3,286047002.6,N
1704828595.2,286046999.7,N
1704828615.9,286047001.9,N
1704828635.7,286047002.5,N
1704828655.6,286047001.5,N
1704828675.4,286047001.0,N
1704828695.2,286047001.2,N
1704828715.1,286046998.2,N
1704828716.0,286046998.2,N
1704828735.8,286047000.0,N
1704828755.7,286047000.8,N
1704828775.5,286046998.1,N
1704828795.3,286047000.0,N
1704828815.2,286047001.0,N
1704828835.0,286047000.8,N
1704828835.9,286047000.8,N
1704828855.7,286047000.7,N
1704828875.6,286047001.0,N
1704828895.4,286047000.5,N
1704828915.3,286046998.5,N
1704828935.1,286047001.1,N
1704828955.8,286046998.1,N
1704828975.7,286047001.0,N
1704828995.5,286047000.3,N
1704829015.3,286046999.7,N
1704829035.2,286047001.5,N
1704829055.0,286047002.6,N
1704829055.9,286047002.6,N
1704829075.8,286047002.5,N
1704829095.6,286046999.7,N
1704829115.4,286046999.9,N
1704829135.3,286047000.3,N
1704829155.1,286047000.0,N
1704829175.9,286047002.5,N
1704829195.7,286047002.3,N
1704829215.5,286046999.7,N
1704829235.4,286047000.2,N
1704829255.2,286047000.0,N
1704829275.0,286047001.0,N
1704829275.9,286047001.0,N
1704829295.8,286047001.1,N
1704829315.6,286047000.8,N
1704829335.5,286046999.7,N
1704829355.3,286047001.9,N
1704829375.1,286047002.1,N
1704829395.9,286047000.5,N
1704829415.7,286047000.4,N
1704829435.5,286047000.9,N
1704829455.4,286046998.2,N
1704829475.2,286047000.8,N
1704829495.1,286047001.0,N
1704829496.0,286047001.0,N
1704829515.8,286047000.2,N
1704829535.6,286047000.8,N
1704829555.5,286047000.7,N
1704829575.3,286046999.8,N
1704829595.1,286047002.4,N
1704829615.9,286047000.0,N
1704829635.7,286046999.8,N
1704829655.6,286047000.1,N
1704829675.4,286047001.0,N
1704829695.2,286047000.1,N
1704829715.1,286047000.5,N
1704829716.0,286047000.5,N
1704829735.8,286047002.4,N
1704829755.7,286047002.6,Y
1704829775.5,286047000.0,P
1704829795.3,286047002.7,P
1704829815.2,286047001.9,N
1704829835.0,286046999.7,N
1704829835.9,286046999.7,N
1704829855.8,286047002.1,N
1704829875.6,286046999.8,N
1704829895.4,286047001.0,N
1704829915.3,286047000.6,N
1704829935.1,286047001.0,N
1704829955.8,286047000.2,N
1704829975.7,286046999.8,N
1704829995.5,286047000.2,N
1704830015.4,286047000.1,N
1704830035.2,286047002.4,N
1704830055.0,286047002.6,N
1704830055.9,286047002.6,N
1704830075.8,286047002.6,N
1704830095.6,286047001.5,N
1704830115.5,286047004.3,Y
1704830135.3,286047000.1,P
1704830155.1,286047001.9,P
1704830175.9,286046999.8,N
1704830195.7,286046999.8,N
1704830215.5,286047000.5,N
1704830235.4,286047000.4,N
1704830255.2,286046998.2,N
1704830275.1,286046999.6,N
1704830276.0,286046999.6,N
1704830295.8,286046998.9,N
1704830315.6,286046996.5,Y
1704830335.5,286046999.6,P
1704830355.3,286046996.5,P
1704830375.2,286046999.0,N
1704830395.9,286047001.1,N
